Powrót do katalogu

STARLINK-3415

AktywnyŁącznośćVLEO
NORAD 51472·PAYLOAD·🇺🇸 United States

Wystrzelony Feb 3, 2022 z Cape Canaveral Space Force Station

Loading…

Następne Przeloty (najbliższe 24 godziny)

TLE

ŚwieżeSource: CelesTrak SupGP

Epoka: Sep 14, 2026, 22:04 UTC

1 51472C 22010S   26257.91993056 -.00017344  00000+0 -51269-3 0  2571
2 51472  53.1595 141.4596 0001334  78.9262 167.7685 15.34382360    10

Śledź STARLINK-3415 w czasie rzeczywistym z AllMySat

Download on the App Store